K5EBQ Weather Reports


Display with metric or nautical units.
time (UTC)temp
F
wind
direction
speed
MPH
gust
MPH
rain 1hr
in
rain 24hr
in
rain mn
in
humidity
%
barometer
mb
20260904011528 80 46 0.0 0.0 0.00 1.43 1.43 93 1009.6
20260904010025 81 46 0.0 0.0 0.00 1.43 1.43 93 1009.5
20260904004524 81 46 0.0 0.0 0.00 1.43 1.43 92 1009.5
20260904003027 81 46 0.0 0.0 0.00 1.43 1.43 93 1009.6
20260904001522 81 46 0.0 0.0 0.00 1.43 1.43 93 1009.7
20260904000022 81 46 0.0 0.0 0.00 1.43 1.43 95 1009.8
20260903234520 80 46 0.0 0.0 0.00 1.43 1.43 95 1009.8
20260903233019 80 46 0.0 0.0 0.00 1.43 1.43 95 1009.8
20260903231519 80 46 0.0 0.0 0.00 1.43 1.43 95 1009.9
20260903230020 80 46 0.0 0.0 0.00 1.43 1.43 96 1009.9
20260903224517 80 46 0.0 10.0 0.00 1.43 1.43 96 1010.0
20260903223023 79 44 0.0 6.0 0.00 1.43 1.43 96 1010.1
20260903221521 79 40 0.0 2.0 0.01 1.43 1.43 95 1009.9
20260903220017 79 40 0.0 6.0 0.01 1.43 1.43 96 1010.1
20260903214515 78 118 0.0 2.0 0.03 1.43 1.43 95 1010.8
20260903213014 78 355 0.0 0.0 0.04 1.43 1.43 96 1010.9
20260903211512 79 355 0.0 1.0 0.03 1.42 1.42 96 1011.0
20260903210011 78 355 0.0 0.0 0.04 1.42 1.42 96 1010.9
20260903204510 78 355 0.0 0.0 0.02 1.40 1.40 96 1011.1
20260903203020 77 355 0.0 0.0 0.01 1.39 1.39 96 1011.2
20260903201512 77 355 0.0 2.0 0.02 1.39 1.39 96 1011.2
20260903200026 77 57 0.0 1.0 0.01 1.38 1.38 96 1011.0
20260903194524 77 57 0.0 0.0 0.02 1.38 1.38 95 1011.3
20260903193008 76 57 0.0 2.0 0.26 1.38 1.38 95 1011.4
20260903191508 76 53 0.0 1.0 0.84 1.37 1.37 94 1011.4
20260903190006 76 53 0.0 1.0 1.35 1.37 1.37 93 1011.4
20260903184505 77 44 0.0 3.0 1.35 1.36 1.36 93 1011.0
20260903183002 77 107 0.0 2.0 1.09 1.10 1.10 91 1011.9
20260903181634 80 13 1.0 3.0 0.52 0.53 0.53 87 1012.4
20260903180054 85 145 0.0 31.0 0.01 0.02 0.02 81 1012.0
20260903174559 89 77 2.0 18.0 0.00 0.01 0.01 76 1011.8
20260903173101 90 188 0.0 13.0 0.00 0.01 0.01 72 1011.5
20260903171600 89 180 0.0 27.0 0.01 0.01 0.01 73 1011.2
20260903170052 89 209 0.0 0.0 0.01 0.01 0.01 80 1011.5
20260903164556 88 212 0.0 29.0 0.01 0.01 0.01 81 1011.8
20260903163051 91 211 27.0 46.0 0.01 0.01 0.01 75 1011.9
20260903161601 92 232 3.0 26.0 0.00 0.00 0.00 72 1011.7
20260903160042 91 281 14.0 28.0 0.00 0.00 0.00 72 1011.7
20260903154538 89 221 8.0 20.0 0.00 0.00 0.00 77 1011.8
20260903153036 88 198 4.0 34.0 0.00 0.00 0.00 79 1011.8
20260903151535 87 216 0.0 10.0 0.00 0.00 0.00 80 1011.8
20260903150031 85 155 0.0 14.0 0.00 0.00 0.00 84 1012.1
20260903144529 85 121 0.0 4.0 0.00 0.00 0.00 85 1012.1
20260903143037 85 88 0.0 3.0 0.00 0.00 0.00 85 1012.1
20260903141527 84 113 0.0 2.0 0.00 0.00 0.00 86 1012.1
20260903140026 84 125 0.0 0.0 0.00 0.00 0.00 87 1012.0
20260903134528 83 140 0.0 0.0 0.00 0.00 0.00 88 1012.0
20260903133026 83 217 0.0 0.0 0.00 0.00 0.00 88 1012.0
20260903131525 82 217 0.0 0.0 0.00 0.00 0.00 88 1011.8
20260903130024 82 217 0.0 0.0 0.00 0.00 0.00 88 1011.8
20260903124545 82 217 0.0 0.0 0.00 0.00 0.00 87 1011.6
20260903123023 82 217 0.0 0.0 0.00 0.00 0.00 87 1011.4
20260903121538 83 217 0.0 0.0 0.00 0.00 0.00 87 1011.1
20260903120023 83 217 0.0 5.0 0.00 0.00 0.00 86 1011.0
20260903114523 83 205 0.0 0.0 0.00 0.00 0.00 86 1011.0
20260903113022 83 211 1.0 4.0 0.00 0.00 0.00 86 1011.1
20260903111519 83 205 0.0 4.0 0.00 0.00 0.00 86 1011.0
20260903110018 83 210 0.0 5.0 0.00 0.00 0.00 86 1010.9
20260903104524 83 182 0.0 4.0 0.00 0.00 0.00 86 1010.8
20260903103015 83 213 1.0 6.0 0.00 0.00 0.00 86 1010.8
20260903101521 84 202 0.0 3.0 0.00 0.00 0.00 86 1010.7
20260903100022 84 213 2.0 11.0 0.00 0.00 0.00 86 1010.7
20260903094514 84 216 0.0 36.0 0.00 0.00 0.00 85 1010.7
20260903093014 84 218 3.0 36.0 0.00 0.00 0.00 85 1010.7
20260903091514 84 141 23.0 51.0 0.00 0.00 0.00 85 1010.7
20260903090011 84 171 19.0 47.0 0.00 0.00 0.00 84 1010.6
20260903084514 84 184 6.0 65.0 0.00 0.00 0.00 84 1010.6
20260903083012 84 215 5.0 44.0 0.00 0.00 0.00 84 1010.5
20260903081511 84 184 13.0 35.0 0.00 0.00 0.00 84 1010.5
20260903080009 84 222 2.0 29.0 0.00 0.00 0.00 84 1010.4
20260903074509 84 162 9.0 35.0 0.00 0.00 0.00 85 1010.4
20260903073008 84 220 37.0 91.0 0.00 0.00 0.00 84 1010.4
20260903071507 84 156 24.0 77.0 0.00 0.00 0.00 85 1010.5
20260903070006 84 220 36.0 74.0 0.00 0.00 0.00 86 1010.6
20260903064503 83 144 24.0 100.0 0.00 0.00 0.00 86 1010.9
20260903063123 84 178 7.0 55.0 0.00 0.00 0.00 86 1010.9
20260903061558 84 165 0.0 0.0 0.00 0.00 0.00 85 1011.2
20260903060054 85 165 0.0 0.0 0.00 0.00 0.00 84 1011.5
20260903054551 85 165 0.0 0.0 0.00 0.00 0.00 84 1011.5
20260903053050 85 165 0.0 58.0 0.00 0.00 0.00 83 1011.8
20260903051546 85 196 0.0 53.0 0.00 0.00 0.00 83 1012.0
20260903050043 85 208 0.0 91.0 0.00 0.00 0.00 83 1012.1
20260903044544 85 225 1.0 68.0 0.00 0.00 0.00 83 1012.1
20260903043058 85 226 37.0 103.0 0.00 0.00 0.00 83 1012.1
20260903041543 85 183 17.0 86.0 0.00 0.00 0.00 83 1012.0
20260903040045 86 146 32.0 75.0 0.00 0.00 0.00 82 1011.7
20260903034541 86 156 9.0 30.0 0.00 0.00 0.00 83 1011.8
20260903033041 86 48 10.0 33.0 0.00 0.00 0.00 82 1011.5
20260903031546 86 171 14.0 39.0 0.00 0.00 0.00 81 1011.4
20260903030039 86 173 17.0 41.0 0.00 0.00 0.00 79 1011.2
20260903024539 86 158 15.0 85.0 0.00 0.00 0.00 76 1010.9
20260903023039 87 171 9.0 43.0 0.00 0.00 0.00 71 1010.7
20260903021538 87 207 13.0 43.0 0.00 0.00 0.00 69 1010.6
20260903020045 88 160 2.0 28.0 0.00 0.00 0.00 67 1010.3
20260903014536 88 165 7.0 46.0 0.00 0.00 0.00 67 1010.6
20260903013046 88 180 2.0 47.0 0.00 0.00 0.00 67 1010.6